| time (UTC) | temp C | wind direction | speed KPH | gust KPH | rain 1hr cm | rain 24hr cm | rain mn cm | humidity % | barometer mb |
| 20260504045739 | 8 | 206 | 6.4 | 6.4 | 0.00 | 0.00 | 0.00 | 51 | 1011.4 |
| 20260504045239 | 8 | 123 | 9.7 | 12.9 | 0.00 | 0.00 | 0.00 | 50 | 1011.4 |
| 20260504044737 | 8 | 190 | 12.9 | 14.5 | 0.00 | 0.00 | 0.00 | 51 | 1011.6 |
| 20260504044234 | 8 | 184 | 6.4 | 6.4 | 0.00 | 0.00 | 0.00 | 51 | 1011.6 |
| 20260504043731 | 8 | 195 | 6.4 | 6.4 | 0.00 | 0.00 | 0.00 | 50 | 1011.4 |
| 20260504043228 | 8 | 190 | 6.4 | 6.4 | 0.00 | 0.00 | 0.00 | 51 | 1011.3 |
| 20260504042726 | 8 | 177 | 3.2 | 3.2 | 0.00 | 0.00 | 0.00 | 50 | 1011.3 |
| 20260504042222 | 8 | 184 | 3.2 | 4.8 | 0.00 | 0.00 | 0.00 | 52 | 1011.4 |
| 20260504041718 | 8 | 195 | 3.2 | 3.2 | 0.00 | 0.00 | 0.00 | 50 | 1011.3 |
| 20260504041214 | 8 | 168 | 4.8 | 4.8 | 0.00 | 0.00 | 0.00 | 52 | 1011.4 |
| 20260504040711 | 8 | 165 | 3.2 | 4.8 | 0.00 | 0.00 | 0.00 | 52 | 1011.3 |
| 20260504040208 | 8 | 163 | 4.8 | 4.8 | 0.00 | 0.00 | 0.00 | 52 | 1011.4 |
| 20260504035704 | 8 | 165 | 3.2 | 4.8 | 0.00 | 0.00 | 0.00 | 51 | 1011.1 |
| 20260504035202 | 8 | 160 | 4.8 | 4.8 | 0.00 | 0.00 | 0.00 | 52 | 1011.4 |
| 20260504034659 | 8 | 159 | 6.4 | 9.7 | 0.00 | 0.00 | 0.00 | 51 | 1011.3 |
| 20260504034155 | 8 | 157 | 3.2 | 3.2 | 0.00 | 0.00 | 0.00 | 52 | 1011.3 |
| 20260504033653 | 8 | 180 | 6.4 | 9.7 | 0.00 | 0.00 | 0.00 | 53 | 1011.4 |
| 20260504033150 | 8 | 172 | 6.4 | 6.4 | 0.00 | 0.00 | 0.00 | 52 | 1011.4 |
| 20260504032647 | 8 | 167 | 3.2 | 4.8 | 0.00 | 0.00 | 0.00 | 51 | 1011.4 |
| 20260504032144 | 8 | 172 | 3.2 | 3.2 | 0.00 | 0.00 | 0.00 | 51 | 1011.4 |
| 20260504031641 | 9 | 161 | 4.8 | 4.8 | 0.00 | 0.00 | 0.00 | 50 | 1011.4 |
| 20260504031138 | 10 | 171 | 3.2 | 3.2 | 0.00 | 0.00 | 0.00 | 47 | 1011.3 |
| 20260504030634 | 10 | 192 | 6.4 | 6.4 | 0.00 | 0.00 | 0.00 | 45 | 1011.5 |
| 20260504030131 | 10 | 192 | 3.2 | 4.8 | 0.00 | 0.00 | 0.00 | 45 | 1011.3 |
| 20260504025628 | 10 | 187 | 4.8 | 6.4 | 0.00 | 0.00 | 0.00 | 45 | 1011.5 |
| 20260504025125 | 10 | 202 | 6.4 | 6.4 | 0.00 | 0.00 | 0.00 | 45 | 1011.5 |
| 20260504024622 | 10 | 199 | 3.2 | 4.8 | 0.00 | 0.00 | 0.00 | 46 | 1011.5 |
| 20260504024118 | 10 | 180 | 4.8 | 6.4 | 0.00 | 0.00 | 0.00 | 45 | 1011.5 |
| 20260504023615 | 10 | 178 | 3.2 | 4.8 | 0.00 | 0.00 | 0.00 | 45 | 1011.5 |
| 20260504023111 | 10 | 174 | 1.6 | 1.6 | 0.00 | 0.00 | 0.00 | 45 | 1011.7 |
| 20260504022608 | 10 | 191 | 8.0 | 11.3 | 0.00 | 0.00 | 0.00 | 45 | 1011.8 |
| 20260504022103 | 10 | 174 | 4.8 | 4.8 | 0.00 | 0.00 | 0.00 | 45 | 1011.7 |
| 20260504021602 | 10 | 191 | 4.8 | 6.4 | 0.00 | 0.00 | 0.00 | 44 | 1011.8 |
| 20260504021058 | 10 | 188 | 3.2 | 3.2 | 0.00 | 0.00 | 0.00 | 45 | 1011.7 |
| 20260504020555 | 10 | 178 | 4.8 | 6.4 | 0.00 | 0.00 | 0.00 | 45 | 1011.7 |
| 20260504020051 | 10 | 193 | 4.8 | 4.8 | 0.00 | 0.00 | 0.00 | 44 | 1011.7 |
| 20260504015548 | 10 | 176 | 3.2 | 3.2 | 0.00 | 0.00 | 0.00 | 44 | 1011.6 |
| 20260504015044 | 10 | 184 | 6.4 | 6.4 | 0.00 | 0.00 | 0.00 | 43 | 1011.8 |
| 20260504014540 | 10 | 173 | 6.4 | 6.4 | 0.00 | 0.00 | 0.00 | 44 | 1011.8 |
| 20260504014038 | 11 | 173 | 3.2 | 4.8 | 0.00 | 0.00 | 0.00 | 42 | 1011.8 |
| 20260504013535 | -17 | 0.0 | 0.0 | 0.00 | 0.00 | 0.00 | 1011.6 | ||
| 20260504013032 | 11 | 191 | 4.8 | 4.8 | 0.00 | 0.00 | 0.00 | 41 | 1011.6 |
| 20260504012530 | 11 | 191 | 4.8 | 4.8 | 0.00 | 0.00 | 0.00 | 41 | 1011.5 |
| 20260504012027 | 11 | 181 | 1.6 | 1.6 | 0.00 | 0.00 | 0.00 | 41 | 1011.3 |
| 20260504011524 | 11 | 174 | 3.2 | 3.2 | 0.00 | 0.00 | 0.00 | 41 | 1011.3 |
| 20260504011020 | 11 | 181 | 4.8 | 6.4 | 0.00 | 0.00 | 0.00 | 40 | 1011.4 |
| 20260504010516 | 11 | 190 | 3.2 | 3.2 | 0.00 | 0.00 | 0.00 | 40 | 1011.2 |
| 20260504010012 | 11 | 188 | 6.4 | 6.4 | 0.00 | 0.00 | 0.00 | 40 | 1011.4 |
| 20260504005509 | 11 | 184 | 3.2 | 4.8 | 0.00 | 0.00 | 0.00 | 40 | 1011.4 |
| 20260504005006 | 11 | 197 | 8.0 | 11.3 | 0.00 | 0.00 | 0.00 | 40 | 1011.4 |
| 20260504004504 | 11 | 198 | 4.8 | 4.8 | 0.00 | 0.00 | 0.00 | 39 | 1011.4 |
| 20260504004000 | 12 | 176 | 3.2 | 3.2 | 0.00 | 0.00 | 0.00 | 39 | 1011.3 |
| 20260504003456 | 12 | 211 | 4.8 | 6.4 | 0.00 | 0.00 | 0.00 | 39 | 1011.5 |
| 20260504002954 | 12 | 193 | 4.8 | 4.8 | 0.00 | 0.00 | 0.00 | 38 | 1011.2 |
| 20260504002451 | 12 | 164 | 4.8 | 4.8 | 0.00 | 0.00 | 0.00 | 38 | 1011.3 |
| 20260504001948 | 12 | 198 | 8.0 | 9.7 | 0.00 | 0.00 | 0.00 | 37 | 1011.4 |
| 20260504001445 | 12 | 201 | 4.8 | 6.4 | 0.00 | 0.00 | 0.00 | 37 | 1011.3 |
| 20260504000942 | 12 | 201 | 6.4 | 9.7 | 0.00 | 0.00 | 0.00 | 37 | 1011.3 |
| 20260504000439 | 12 | 225 | 12.9 | 14.5 | 0.00 | 0.00 | 0.00 | 36 | 1011.3 |
| 20260503235936 | 12 | 223 | 11.3 | 16.1 | 0.00 | 0.00 | 0.00 | 36 | 1011.2 |
| 20260503235434 | 12 | 226 | 8.0 | 11.3 | 0.00 | 0.00 | 0.00 | 36 | 1011.3 |
| 20260503234931 | 12 | 220 | 9.7 | 11.3 | 0.00 | 0.00 | 0.00 | 35 | 1011.2 |
| 20260503234428 | 13 | 192 | 4.8 | 4.8 | 0.00 | 0.00 | 0.00 | 36 | 1011.3 |
| 20260503233927 | 13 | 175 | 6.4 | 9.7 | 0.00 | 0.00 | 0.00 | 35 | 1011.4 |
| 20260503233423 | 13 | 223 | 8.0 | 11.3 | 0.00 | 0.00 | 0.00 | 35 | 1011.4 |
| 20260503232919 | 13 | 172 | 4.8 | 6.4 | 0.00 | 0.00 | 0.00 | 34 | 1011.4 |
| 20260503232416 | 13 | 271 | 17.7 | 20.9 | 0.00 | 0.00 | 0.00 | 34 | 1011.4 |
| 20260503231914 | 13 | 220 | 8.0 | 11.3 | 0.00 | 0.00 | 0.00 | 34 | 1011.4 |
| 20260503231411 | 13 | 174 | 6.4 | 9.7 | 0.00 | 0.00 | 0.00 | 34 | 1011.4 |
| 20260503230907 | 13 | 176 | 9.7 | 12.9 | 0.00 | 0.00 | 0.00 | 34 | 1011.4 |
| 20260503230404 | 13 | 183 | 9.7 | 14.5 | 0.00 | 0.00 | 0.00 | 34 | 1011.5 |
| 20260503225902 | 13 | 233 | 16.1 | 22.5 | 0.00 | 0.00 | 0.00 | 33 | 1011.4 |
| 20260503225357 | 13 | 206 | 4.8 | 9.7 | 0.00 | 0.00 | 0.00 | 34 | 1011.4 |
| 20260503224854 | 13 | 204 | 8.0 | 12.9 | 0.00 | 0.00 | 0.00 | 34 | 1011.5 |
| 20260503224351 | 13 | 234 | 11.3 | 12.9 | 0.00 | 0.00 | 0.00 | 33 | 1011.4 |
| 20260503223849 | 13 | 241 | 9.7 | 11.3 | 0.00 | 0.00 | 0.00 | 34 | 1011.5 |
| 20260503223347 | 13 | 174 | 4.8 | 4.8 | 0.00 | 0.00 | 0.00 | 34 | 1011.6 |
| 20260503222842 | 13 | 172 | 16.1 | 20.9 | 0.00 | 0.00 | 0.00 | 33 | 1011.6 |
| 20260503222341 | 13 | 227 | 14.5 | 16.1 | 0.00 | 0.00 | 0.00 | 33 | 1011.5 |
| 20260503221838 | 14 | 202 | 6.4 | 11.3 | 0.00 | 0.00 | 0.00 | 33 | 1011.6 |
| 20260503221337 | 15 | 274 | 9.7 | 16.1 | 0.00 | 0.00 | 0.00 | 32 | 1011.7 |
| 20260503220832 | 15 | 238 | 12.9 | 22.5 | 0.00 | 0.00 | 0.00 | 31 | 1011.6 |
| 20260503220329 | 15 | 236 | 11.3 | 14.5 | 0.00 | 0.00 | 0.00 | 32 | 1011.6 |
| 20260503215826 | 14 | 213 | 9.7 | 14.5 | 0.00 | 0.00 | 0.00 | 34 | 1011.5 |
| 20260503215323 | 15 | 183 | 3.2 | 4.8 | 0.00 | 0.00 | 0.00 | 34 | 1011.3 |
| 20260503214821 | 13 | 223 | 9.7 | 11.3 | 0.00 | 0.00 | 0.00 | 33 | 1011.5 |
| 20260503214318 | 13 | 167 | 9.7 | 14.5 | 0.00 | 0.00 | 0.00 | 34 | 1011.4 |
| 20260503213815 | 14 | 198 | 6.4 | 6.4 | 0.00 | 0.00 | 0.00 | 34 | 1011.4 |
| 20260503213313 | 15 | 231 | 9.7 | 12.9 | 0.00 | 0.00 | 0.00 | 32 | 1011.4 |
| 20260503212810 | 14 | 202 | 8.0 | 9.7 | 0.00 | 0.00 | 0.00 | 33 | 1011.3 |
| 20260503212308 | 14 | 283 | 12.9 | 14.5 | 0.00 | 0.00 | 0.00 | 32 | 1011.5 |
| 20260503211805 | 14 | 191 | 3.2 | 4.8 | 0.00 | 0.00 | 0.00 | 34 | 1011.4 |
| 20260503211301 | 14 | 206 | 11.3 | 14.5 | 0.00 | 0.00 | 0.00 | 33 | 1011.5 |
| 20260503210801 | 14 | 222 | 9.7 | 14.5 | 0.00 | 0.00 | 0.00 | 33 | 1011.6 |
| 20260503210259 | 13 | 258 | 4.8 | 9.7 | 0.00 | 0.00 | 0.00 | 33 | 1011.4 |
| 20260503205754 | 14 | 222 | 9.7 | 12.9 | 0.00 | 0.00 | 0.00 | 33 | 1011.6 |
| 20260503205251 | 13 | 209 | 6.4 | 6.4 | 0.00 | 0.00 | 0.00 | 33 | 1011.7 |
| 20260503204747 | 13 | 186 | 4.8 | 9.7 | 0.00 | 0.00 | 0.00 | 34 | 1011.8 |
| 20260503204245 | 14 | 243 | 16.1 | 22.5 | 0.00 | 0.00 | 0.00 | 32 | 1011.7 |
| 20260503203742 | 13 | 243 | 17.7 | 20.9 | 0.00 | 0.00 | 0.00 | 32 | 1011.9 |
| 20260503203240 | 14 | 177 | 4.8 | 6.4 | 0.00 | 0.00 | 0.00 | 33 | 1011.9 |
| 20260503202737 | 13 | 201 | 9.7 | 20.9 | 0.00 | 0.00 | 0.00 | 34 | 1011.9 |
| 20260503202234 | 13 | 248 | 9.7 | 12.9 | 0.00 | 0.00 | 0.00 | 33 | 1011.8 |
| 20260503201732 | 15 | 274 | 11.3 | 14.5 | 0.00 | 0.00 | 0.00 | 31 | 1012.0 |
| 20260503201229 | 13 | 185 | 17.7 | 20.9 | 0.00 | 0.00 | 0.00 | 33 | 1011.8 |
| 20260503200726 | 14 | 212 | 4.8 | 6.4 | 0.00 | 0.00 | 0.00 | 32 | 1012.0 |
| 20260503200222 | 14 | 250 | 11.3 | 12.9 | 0.00 | 0.00 | 0.00 | 32 | 1012.2 |
| 20260503195719 | 14 | 212 | 8.0 | 11.3 | 0.00 | 0.00 | 0.00 | 33 | 1012.1 |
| 20260503195216 | 13 | 208 | 12.9 | 17.7 | 0.00 | 0.00 | 0.00 | 32 | 1012.1 |
| 20260503194713 | 13 | 210 | 6.4 | 9.7 | 0.00 | 0.00 | 0.00 | 32 | 1012.4 |
| 20260503194209 | 13 | 256 | 8.0 | 12.9 | 0.00 | 0.00 | 0.00 | 33 | 1012.3 |
| 20260503193705 | 13 | 286 | 17.7 | 22.5 | 0.00 | 0.00 | 0.00 | 32 | 1012.3 |
| 20260503193201 | 14 | 220 | 8.0 | 11.3 | 0.00 | 0.00 | 0.00 | 32 | 1012.5 |
| 20260503192657 | 14 | 238 | 8.0 | 12.9 | 0.00 | 0.00 | 0.00 | 31 | 1012.5 |
| 20260503192152 | 14 | 244 | 14.5 | 20.9 | 0.00 | 0.00 | 0.00 | 32 | 1012.6 |
| 20260503191649 | 14 | 186 | 12.9 | 17.7 | 0.00 | 0.00 | 0.00 | 31 | 1012.6 |
| 20260503191147 | 13 | 187 | 4.8 | 6.4 | 0.00 | 0.00 | 0.00 | 32 | 1013.0 |
| 20260503190643 | 14 | 301 | 12.9 | 17.7 | 0.00 | 0.00 | 0.00 | 32 | 1012.9 |
| 20260503190140 | 13 | 204 | 6.4 | 11.3 | 0.00 | 0.00 | 0.00 | 32 | 1013.0 |
| 20260503185637 | 13 | 168 | 9.7 | 12.9 | 0.00 | 0.00 | 0.00 | 33 | 1013.1 |
| 20260503185132 | 13 | 242 | 4.8 | 9.7 | 0.00 | 0.00 | 0.00 | 34 | 1013.3 |
| 20260503184627 | 12 | 186 | 12.9 | 16.1 | 0.00 | 0.00 | 0.00 | 35 | 1013.3 |
| 20260503184124 | 13 | 202 | 9.7 | 16.1 | 0.00 | 0.00 | 0.00 | 34 | 1013.3 |
| 20260503183621 | 13 | 203 | 8.0 | 11.3 | 0.00 | 0.00 | 0.00 | 33 | 1013.3 |
| 20260503183118 | 13 | 192 | 6.4 | 9.7 | 0.00 | 0.00 | 0.00 | 34 | 1013.4 |
| 20260503182616 | 13 | 236 | 12.9 | 17.7 | 0.00 | 0.00 | 0.00 | 33 | 1013.4 |
| 20260503182114 | 13 | 256 | 8.0 | 9.7 | 0.00 | 0.00 | 0.00 | 32 | 1013.5 |
| 20260503181611 | 13 | 306 | 12.9 | 16.1 | 0.00 | 0.00 | 0.00 | 33 | 1013.4 |
| 20260503181108 | 12 | 205 | 6.4 | 6.4 | 0.00 | 0.00 | 0.00 | 34 | 1013.4 |
| 20260503180605 | 12 | 215 | 19.3 | 24.1 | 0.00 | 0.00 | 0.00 | 35 | 1013.6 |
| 20260503175559 | 12 | 292 | 12.9 | 12.9 | 0.00 | 0.00 | 0.00 | 33 | 1013.6 |
| 20260503175056 | 12 | 241 | 17.7 | 20.9 | 0.00 | 0.00 | 0.00 | 33 | 1013.8 |
| 20260503174553 | 12 | 118 | 14.5 | 22.5 | 0.00 | 0.00 | 0.00 | 33 | 1013.8 |
| 20260503174050 | 13 | 296 | 11.3 | 12.9 | 0.00 | 0.00 | 0.00 | 33 | 1013.8 |
| 20260503173545 | 12 | 206 | 9.7 | 12.9 | 0.00 | 0.00 | 0.00 | 33 | 1013.9 |
| 20260503173041 | 12 | 151 | 6.4 | 9.7 | 0.00 | 0.00 | 0.00 | 33 | 1014.1 |
| 20260503172539 | 12 | 222 | 16.1 | 20.9 | 0.00 | 0.00 | 0.00 | 34 | 1013.9 |
| 20260503172036 | 12 | 315 | 8.0 | 14.5 | 0.00 | 0.00 | 0.00 | 35 | 1013.9 |
| 20260503171532 | 11 | 210 | 8.0 | 11.3 | 0.00 | 0.00 | 0.00 | 35 | 1014.1 |
| 20260503171030 | 12 | 325 | 14.5 | 16.1 | 0.00 | 0.00 | 0.00 | 34 | 1014.0 |
| 20260503170526 | 12 | 313 | 8.0 | 11.3 | 0.00 | 0.00 | 0.00 | 33 | 1014.3 |
| 20260503150918 | 10 | 236 | 11.3 | 14.5 | 0.00 | 0.00 | 0.00 | 39 | 1014.8 |
| 20260503150415 | 10 | 331 | 12.9 | 16.1 | 0.00 | 0.00 | 0.00 | 37 | 1015.0 |
| 20260503131308 | 6 | 196 | 6.4 | 9.7 | 0.00 | 0.00 | 0.00 | 59 | 1015.3 |
| 20260503130806 | 6 | 266 | 4.8 | 9.7 | 0.00 | 0.00 | 0.00 | 60 | 1015.3 |
| 20260503130303 | 6 | 198 | 6.4 | 6.4 | 0.00 | 0.00 | 0.00 | 60 | 1015.2 |
| 20260503110657 | 1 | 164 | 1.6 | 1.6 | 0.00 | 0.00 | 0.00 | 88 | 1014.2 |
| 20260503110154 | 0 | 186 | 1.6 | 1.6 | 0.00 | 0.00 | 0.00 | 88 | 1014.4 |
| 20260503100120 | 0 | 176 | 0.0 | 0.0 | 0.00 | 0.00 | 0.00 | 89 | 1013.6 |
| 20260503081510 | 1 | 172 | 1.6 | 1.6 | 0.00 | 0.00 | 0.00 | 82 | 1013.6 |
| 20260503081007 | 1 | 184 | 3.2 | 4.8 | 0.00 | 0.00 | 0.00 | 82 | 1013.6 |
| 20260503080503 | 1 | 176 | 1.6 | 1.6 | 0.00 | 0.00 | 0.00 | 82 | 1013.6 |
| 20260503072939 | 2 | 174 | 0.0 | 0.0 | 0.00 | 0.00 | 0.00 | 80 | 1013.4 |
| 20260503072437 | 2 | 186 | 3.2 | 3.2 | 0.00 | 0.00 | 0.00 | 81 | 1013.3 |
| 20260503071934 | 2 | 193 | 3.2 | 4.8 | 0.00 | 0.00 | 0.00 | 80 | 1013.4 |
| 20260503071431 | 2 | 176 | 1.6 | 1.6 | 0.00 | 0.00 | 0.00 | 80 | 1013.2 |
| 20260503070927 | 2 | 185 | 3.2 | 3.2 | 0.00 | 0.00 | 0.00 | 80 | 1013.3 |
| 20260503070424 | 2 | 203 | 3.2 | 4.8 | 0.00 | 0.00 | 0.00 | 80 | 1013.4 |
| 20260503054838 | 2 | 190 | 1.6 | 3.2 | 0.00 | 0.00 | 0.00 | 81 | 1013.3 |
| 20260503054333 | 2 | 183 | 3.2 | 3.2 | 0.00 | 0.00 | 0.00 | 80 | 1013.5 |
| 20260503053831 | 2 | 207 | 1.6 | 1.6 | 0.00 | 0.00 | 0.00 | 80 | 1013.4 |
| 20260503053330 | 2 | 203 | 3.2 | 3.2 | 0.00 | 0.00 | 0.00 | 80 | 1013.5 |
| 20260503052826 | 2 | 225 | 3.2 | 4.8 | 0.00 | 0.00 | 0.00 | 80 | 1013.5 |
| 20260503052323 | 2 | 184 | 3.2 | 3.2 | 0.00 | 0.00 | 0.00 | 79 | 1013.5 |
| 20260503051819 | 2 | 210 | 3.2 | 4.8 | 0.00 | 0.00 | 0.00 | 78 | 1013.6 |
| 20260503051315 | 2 | 195 | 3.2 | 3.2 | 0.00 | 0.00 | 0.00 | 77 | 1013.6 |
| 20260503050812 | 2 | 188 | 3.2 | 3.2 | 0.00 | 0.00 | 0.00 | 77 | 1013.5 |
| 20260503050308 | 2 | 197 | 3.2 | 3.2 | 0.00 | 0.00 | 0.00 | 76 | 1013.7 |
| 20260503045806 | 2 | 205 | 3.2 | 3.2 | 0.00 | 0.00 | 0.00 | 75 | 1013.9 |